Regional Weather Roundup
Issued by NWS Upton, NY

Current Version | Previous Version | Graphics & Text | Print | Product List | Glossary Off
Versions: 1 2 3 4 5 6 7 8 9 10 11 12 13 14 15 16 17 18 19 20 21 22 23 24 25 26 27 28 29 30 31 32 33 34 35 36 37 38 39 40 41 42 43 44 45 46 47 48 49 50

517
ASUS41 KOKX 202009
RWROKX

REGIONAL WEATHER ROUNDUP
NATIONAL WEATHER SERVICE NEW YORK NY
400 PM EDT FRI OCT 20 2017

NOTE: "FAIR" INDICATES FEW OR NO CLOUDS BELOW 12,000 FEET WITH NO
SIGNIFICANT WEATHER AND/OR OBSTRUCTIONS TO VISIBILITY.

NYZ071-072-176-178-NJZ106-104-202100-
NEW YORK CITY METRO AREA

CITY           SKY/WX    TMP DP  RH WIND       PRES   REMARKS
Central Park   SUNNY     73  29  19 VRB5      30.12S
Bronx Bot Gard   N/A     73  32  21 NW10      30.10F
LaGuardia APRT MOSUNNY   73  36  25 NW15G22   30.09S
Kennedy INTL   MOSUNNY   75  30  19 NW14G21   30.10F
Breezy Point     N/A     72 N/A N/A W8          N/A
Newark/Liberty MOSUNNY   76  26  15 NW15G22   30.10S
Teterboro      SUNNY     75  31  19 NW16      30.09S
$$

NYZ177-179-078>081-202100-
LONG ISLAND NEW YORK

CITY           SKY/WX    TMP DP  RH WIND       PRES   REMARKS
Jones Beach      N/A     72 N/A N/A NW12        N/A
Matinecock PT    N/A     72 N/A N/A W6          N/A
Farmingdale    SUNNY     72  33  24 NW10      30.09F
MacArthur/ISP  SUNNY     72  34  24 NW12      30.08S
Shirley        SUNNY     74  38  27 NW9       30.08S
Mt Sinai Harb    N/A    N/A N/A N/A W7G13       N/A
Westhampton    SUNNY     71  33  24 W13       30.08R
East Hampton   FAIR      67  42  39 W10G16    30.05S
Montauk          N/A     68  47  46 W9        30.06R
$$

NYZ052-065-067-202100-
HUDSON VALLEY

CITY           SKY/WX    TMP DP  RH WIND       PRES   REMARKS
White Plains   SUNNY     72  33  24 W10       30.09F
Larchmont Harb   N/A     72 N/A N/A W9          N/A
Croton On Huds   N/A     73 N/A N/A NW10        N/A
Newburgh       SUNNY     73  41  31 NW6       30.11S
Montgomery     SUNNY     73  37  27 N12G17    30.10R
Poughkeepsie   SUNNY     73  36  25 NW8       30.09R
Albany         MOSUNNY   70  36  28 W10       30.11S
$$

NJZ001-105-106-008-010-013-015-019>022-104-202100-
NEW JERSEY

CITY           SKY/WX    TMP DP  RH WIND       PRES   REMARKS
Newark/Liberty MOSUNNY   76  26  15 NW15G22   30.10S
Teterboro      SUNNY     75  31  19 NW16      30.09S
Caldwell       SUNNY     73  35  25 VRB7      30.12R
Somerville     SUNNY     75  33  21 NW12      30.11S
Linden         FAIR      75  29  19 NW10G17   30.11S
Perth Amboy      N/A     72 N/A N/A NW12        N/A
Sussex         SUNNY     71  35  26 VRB7G17   30.14R
Andover          N/A     71  36  27 N8        30.15R
Trenton          N/A     73  32  22 NW9       30.13F
Millville      SUNNY     76  40  27 NW8       30.15F
Atlantic City  SUNNY     74  38  27 W10       30.13F
Wrightstown    SUNNY     73  35  25 NW10      30.11S
Toms River       N/A     72  37  28 NW12      30.13S
Belmar         SUNNY     73  35  25 W15       30.13S
$$

PAZ047>061-062-071-202100-
EASTERN PENNSYLVANIA

CITY           SKY/WX    TMP DP  RH WIND       PRES   REMARKS
Philadelphia   MOSUNNY   74  37  26 NW8       30.16S
Allentown      SUNNY     74  32  21 NW6       30.16R
Scranton       SUNNY     70  31  23 N10       30.18F
$$

CTZ002-004>006-009-010-012-RIZ004-006-007-MAZ004-011-015-202100-
SOUTHERN NEW ENGLAND
 IN CT

CITY           SKY/WX    TMP DP  RH WIND       PRES   REMARKS
Bradley INTL   SUNNY     71  37  28 NW13      30.07R
Hartford       SUNNY     71  37  28 NW14G22   30.06R
Danbury        SUNNY     72  33  24 NW10G22   30.10S
Wtrbury/Oxford SUNNY     69  35  28 N15G22    30.09S
Norwalk Harbor   N/A     70 N/A N/A W13         N/A
Bridgeport     SUNNY     74  33  22 NW14      30.07R
Meriden        SUNNY     71  36  27 NW14G22   30.07R
New Haven      SUNNY     73  34  23 NW13G22   30.07R
Chester        FAIR      72  36  26 NW9G16    30.06S
Groton         SUNNY     72  37  28 NW13      30.04R
Wilimantic     SUNNY     70  36  28 W12G21    30.05R

 IN RI

CITY           SKY/WX    TMP DP  RH WIND       PRES   REMARKS
Providence     MOSUNNY   71  38  29 NW14G21   30.03R
Block Island   SUNNY     68  45  43 W10       30.04S
Westerly       SUNNY     72  36  26 NW9G17    30.04R
 IN MA

CITY           SKY/WX    TMP DP  RH WIND       PRES   REMARKS
Boston         SUNNY     70  36  28 W14G22    30.00R
Worcester      SUNNY     66  30  26 NW16G26   30.05R
Westfield      SUNNY     71  34  25 NW14G21   30.06S
Provincetown   SUNNY     65  47  52 NW9       30.00R
Nantucket      SUNNY     68  45  43 NW12      30.00S
$$

ANZ330-335-338-340-345-350-353-355-202100-
COASTAL MARINE OBSERVATIONS


STATION/POSITION TIME  SKY/WX   TEMP    WIND        PRES    VSBY  WAVE
                                AIR SEA DIR/SP/G                  HT/PER
                 (UTC)          (F)     (DEG/KT/KT) (MB)    (MI)  (FT/S)
NY HARB ENTRANCE 1850            67 65  300/ 12/ 14 1018.9          2/ 8
20 S FIRE ISLAND 1850            65 64  280/ 14/ 16 1019.2          3/ 9
GREAT SOUTH BAY  1930            67 63  320/ 12/ 16   N/A
15 E BARNEGAT LI NOT AVBL
HUDSON CANYON    1850            64 65  310/ 14/ 17 1018.7          4/ 5
KINGS POINT      1948            71 66  350/ 12/ 15 1019.6
EXECUTION ROCKS  1930            74     300/ 10/ 16   N/A
WESTERN LI SOUND 1849            70     300/ 10/ 14   N/A           0
CENTRAL LI SOUND NOT AVBL
EASTERN LI SOUND NOT AVBL
ROBBINS REEF     1948            72     310/  9/ 12 1019.7
$$


>>>>>>>>>>>>>>>>>>>>>>>>>>>> KEY <<<<<<<<<<<<<<<<<<<<<<<<<<<
>                                                          <
>     SKY/WX - Sky Condition/Present Weather               <
>     TMP    - Temperature in Fahrenheit                   <
>     DP     - Dew Point in Fahrenheit                     <
>     RH     - Relative Humidity in Percent                <
>     WIND   - Direction (from) and Speed in MPH           <
>     PRES   - Mean Sea Level Pressure (inches of Hg)      <
>     WCI    - Wind Chill Index                            <
>     VSB    - VISIBILITY IN MILES                         <
>     HX     - HEAT INDEX                                  <
>     TC     - TEMPERATURE IN CELSIUS                      <
>     VRB    - VARIABLE WIND DIRECTION                     <
>                                                          <
>>>>>>>>>>>>>>>>>>>>>>>>>>>> KEY <<<<<<<<<<<<<<<<<<<<<<<<<<<




USA.gov is the U.S. government's official web portal to all federal, state and local government web resources and services.